�������l�o���
Date,Time,MP-1(��Sv/h),MP-2(��Sv/h),MP-3(��Sv/h),MP-4(��Sv/h),MP-5(��Sv/h),MP-6(��Sv/h),MP-7(��Sv/h),MP-8(��Sv/h),����,����(m/s),���J
2020/11/26,00:00,0.663,0.951,0.602,1.184,0.843,0.380,0.671,0.630,�k�k��,1.9,��
2020/11/26,00:10,0.662,0.951,0.602,1.188,0.844,0.381,0.670,0.631,�k�k��,1.5,��
2020/11/26,00:20,0.662,0.952,0.603,1.186,0.842,0.379,0.671,0.631,�k��,1.7,��
2020/11/26,00:30,0.662,0.951,0.603,1.188,0.844,0.380,0.670,0.632,�k��,1.9,��
2020/11/26,00:40,0.665,0.952,0.603,1.187,0.844,0.380,0.669,0.631,���k��,1.4,��
2020/11/26,00:50,0.663,0.950,0.603,1.185,0.842,0.380,0.670,0.631,�k��,1.5,��
2020/11/26,01:00,0.664,0.951,0.604,1.186,0.842,0.381,0.672,0.631,�k�k��,1.7,��
2020/11/26,01:10,0.663,0.951,0.604,1.188,0.844,0.381,0.669,0.632,�k��,2.5,��
2020/11/26,01:20,0.663,0.952,0.603,1.186,0.842,0.380,0.671,0.631,�k��,2.9,��
2020/11/26,01:30,0.662,0.952,0.604,1.185,0.843,0.380,0.671,0.631,�k��,2.8,��
2020/11/26,01:40,0.661,0.951,0.603,1.187,0.844,0.380,0.670,0.632,�k��,1.7,��
2020/11/26,01:50,0.663,0.953,0.605,1.187,0.843,0.380,0.672,0.632,��,1.4,��
2020/11/26,02:00,0.662,0.952,0.601,1.186,0.844,0.379,0.669,0.631,���k��,0.8,��
2020/11/26,02:10,0.663,0.950,0.603,1.183,0.844,0.380,0.671,0.633,�k��,1.1,��
2020/11/26,02:20,0.662,0.950,0.604,1.188,0.843,0.381,0.671,0.631,�k�k��,1.1,��
2020/11/26,02:30,0.662,0.950,0.604,1.185,0.842,0.379,0.671,0.633,�k�k��,1.5,��
2020/11/26,02:40,0.662,0.951,0.604,1.188,0.842,0.381,0.670,0.633,�k�k��,1.5,��
2020/11/26,02:50,0.663,0.949,0.602,1.188,0.843,0.379,0.671,0.629,�k��,2.0,��
2020/11/26,03:00,0.663,0.949,0.604,1.188,0.844,0.380,0.671,0.632,�k�k��,2.6,��
2020/11/26,03:10,0.662,0.951,0.603,1.187,0.843,0.381,0.668,0.632,�k�k��,2.8,��
2020/11/26,03:20,0.664,0.951,0.601,1.185,0.842,0.381,0.670,0.631,�k��,2.0,��
2020/11/26,03:30,0.663,0.954,0.604,1.188,0.843,0.380,0.671,0.632,���k��,2.5,��
2020/11/26,03:40,0.662,0.952,0.603,1.187,0.844,0.380,0.671,0.633,��,3.3,��
2020/11/26,03:50,0.662,0.949,0.602,1.184,0.842,0.380,0.671,0.630,��,4.1,��
2020/11/26,04:00,0.662,0.949,0.602,1.188,0.842,0.380,0.670,0.632,��,3.5,��
2020/11/26,04:10,0.662,0.950,0.604,1.186,0.842,0.380,0.670,0.631,��,3.5,��
2020/11/26,04:20,0.662,0.948,0.603,1.186,0.842,0.379,0.669,0.631,���k��,3.7,��
2020/11/26,04:30,0.661,0.949,0.602,1.189,0.842,0.381,0.669,0.631,���k��,3.6,��
2020/11/26,04:40,0.661,0.951,0.602,1.186,0.842,0.379,0.670,0.631,���k��,4.9,��
2020/11/26,04:50,0.660,0.949,0.603,1.186,0.842,0.380,0.670,0.632,���k��,4.3,��
2020/11/26,05:00,0.663,0.952,0.603,1.186,0.839,0.380,0.672,0.630,�k��,3.5,��
2020/11/26,05:10,0.662,0.951,0.604,1.185,0.844,0.381,0.671,0.631,���k��,3.3,��
2020/11/26,05:20,0.662,0.947,0.602,1.185,0.840,0.378,0.671,0.631,��,2.6,��
2020/11/26,05:30,0.662,0.951,0.604,1.185,0.843,0.380,0.670,0.631,���k��,3.2,��
2020/11/26,05:40,0.660,0.951,0.601,1.186,0.840,0.381,0.669,0.630,���k��,2.6,��
2020/11/26,05:50,0.661,0.949,0.601,1.187,0.840,0.380,0.670,0.633,��,2.9,��
2020/11/26,06:00,0.659,0.950,0.602,1.186,0.841,0.380,0.670,0.633,���k��,3.7,��
2020/11/26,06:10,0.663,0.949,0.604,1.187,0.844,0.381,0.671,0.632,���k��,4.3,��
2020/11/26,06:20,0.662,0.948,0.602,1.186,0.843,0.380,0.670,0.632,��,4.0,��
2020/11/26,06:30,0.660,0.949,0.602,1.186,0.842,0.381,0.670,0.631,���쐼,4.0,��
2020/11/26,06:40,0.662,0.951,0.603,1.186,0.842,0.379,0.670,0.632,���쐼,4.5,��
2020/11/26,06:50,0.661,0.950,0.601,1.187,0.841,0.381,0.671,0.631,���쐼,5.7,��
2020/11/26,07:00,0.663,0.950,0.604,1.185,0.840,0.380,0.670,0.633,�쐼,5.4,��
2020/11/26,07:10,0.662,0.950,0.604,1.185,0.840,0.381,0.670,0.630,�쐼,4.1,��
2020/11/26,07:20,0.662,0.951,0.603,1.188,0.843,0.379,0.671,0.630,�쐼,3.8,��
2020/11/26,07:30,0.662,0.948,0.601,1.187,0.841,0.379,0.669,0.634,���쐼,4.1,��
2020/11/26,07:40,0.662,0.950,0.603,1.188,0.843,0.381,0.670,0.632,���쐼,6.4,��
2020/11/26,07:50,0.663,0.948,0.605,1.185,0.840,0.380,0.672,0.633,��,7.7,��
2020/11/26,08:00,0.663,0.949,0.602,1.189,0.842,0.380,0.670,0.632,��,8.6,��
2020/11/26,08:10,0.662,0.950,0.604,1.190,0.840,0.379,0.673,0.632,��,7.2,��
2020/11/26,08:20,0.662,0.952,0.604,1.186,0.842,0.381,0.673,0.633,��,6.6,��
2020/11/26,08:30,0.664,0.952,0.603,1.186,0.843,0.381,0.672,0.632,��,8.3,��
2020/11/26,08:40,0.664,0.952,0.603,1.189,0.841,0.381,0.674,0.632,��,7.2,��
2020/11/26,08:50,0.664,0.951,0.604,1.188,0.842,0.379,0.672,0.634,��,6.5,��
2020/11/26,09:00,0.664,0.952,0.605,1.190,0.843,0.374,0.673,0.633,��,5.0,��
2020/11/26,09:10,0.665,0.948,0.603,1.190,0.843,0.378,0.672,0.633,��,4.2,��
2020/11/26,09:20,0.665,0.947,0.604,1.190,0.843,0.381,0.672,0.633,���k��,4.1,��
2020/11/26,09:30,0.665,0.946,0.605,1.189,0.843,0.380,0.671,0.634,��,3.2,��
2020/11/26,09:40,0.666,0.948,0.605,1.189,0.844,0.377,0.673,0.632,��,3.6,��
2020/11/26,09:50,0.666,0.950,0.606,1.189,0.844,0.378,0.671,0.632,��,2.9,��
2020/11/26,10:00,0.665,0.948,0.606,1.193,0.845,0.379,0.671,0.634,��,2.9,��
2020/11/26,10:10,0.665,0.950,0.605,1.191,0.847,0.377,0.672,0.635,��,3.8,��
2020/11/26,10:20,0.666,0.950,0.606,1.191,0.846,0.376,0.672,0.635,��,4.2,��
2020/11/26,10:30,0.665,0.951,0.606,1.191,0.846,0.377,0.673,-,��,2.0,��
2020/11/26,10:40,0.667,0.949,0.607,1.191,0.849,0.376,0.673,-,��,0.8,��
2020/11/26,10:50,0.665,0.951,0.608,1.191,0.848,0.376,0.672,-,�k�k��,0.9,��
2020/11/26,11:00,0.669,0.949,0.608,1.191,0.849,0.376,0.673,-,-,CALM,��
2020/11/26,11:10,0.667,0.951,0.609,1.190,0.848,0.376,0.672,-,�k�k��,1.2,��
2020/11/26,11:20,0.667,0.952,0.607,1.192,0.845,0.375,0.673,-,�k�k��,0.9,��
2020/11/26,11:30,0.664,0.952,0.607,1.192,0.845,0.379,0.672,-,�k�k��,1.1,��
2020/11/26,11:40,0.667,0.954,0.607,1.190,0.847,0.379,0.671,-,���k��,0.9,��
2020/11/26,11:50,0.667,0.953,0.606,1.192,0.848,0.377,0.671,-,�k��,3.0,��
2020/11/26,12:00,0.668,0.952,0.608,1.193,0.847,0.377,0.673,-,���k��,3.3,��
2020/11/26,12:10,0.669,0.954,0.609,1.193,0.840,0.381,0.672,-,���k��,3.5,��
2020/11/26,12:20,0.667,0.955,0.608,1.192,0.843,0.381,0.671,-,��,4.6,��
2020/11/26,12:30,0.670,0.955,0.609,1.193,0.842,0.382,0.674,-,��,3.1,��
2020/11/26,12:40,0.670,0.957,0.609,1.192,0.845,0.382,0.673,-,�k�k��,2.9,��
2020/11/26,12:50,0.669,0.955,0.610,1.193,0.845,0.381,0.672,-,�k�k��,4.9,��
2020/11/26,13:00,0.672,0.956,0.608,1.194,0.846,0.381,0.671,-,�k�k��,3.1,��
2020/11/26,13:10,0.668,0.957,0.608,1.194,0.844,0.382,0.673,-,�k��,1.5,��
2020/11/26,13:20,0.670,0.955,0.609,1.194,0.841,0.381,0.673,-,�k��,1.9,��
2020/11/26,13:30,0.669,0.954,0.609,1.194,0.847,0.382,0.672,-,�k,1.5,��
2020/11/26,13:40,0.670,0.955,0.607,1.196,0.850,0.382,0.672,-,�k�k��,3.1,��
2020/11/26,13:50,0.671,0.955,0.608,1.195,0.849,0.382,0.674,-,�k��,4.2,��
2020/11/26,14:00,0.670,0.959,0.608,1.192,0.848,0.383,0.674,-,�k��,4.1,��
2020/11/26,14:10,0.670,0.958,0.609,1.193,0.851,0.381,0.675,0.630,�k��,4.8,��
2020/11/26,14:20,0.669,0.955,0.610,1.196,0.851,0.381,0.673,0.632,�k��,5.7,��
2020/11/26,14:30,0.669,0.956,0.610,1.194,0.852,0.382,0.672,0.632,�k��,4.2,��
2020/11/26,14:40,0.668,0.955,0.610,1.194,0.850,0.383,0.672,0.632,�k��,6.1,��
2020/11/26,14:50,0.672,0.958,0.611,1.193,0.850,0.383,0.673,0.632,�k��,7.5,��
2020/11/26,15:00,0.669,0.958,0.610,1.195,0.848,0.381,0.675,0.632,�k��,7.8,��
2020/11/26,15:10,0.671,0.958,0.610,1.193,0.850,0.382,0.674,0.633,�k�k��,6.9,��
2020/11/26,15:20,0.665,0.958,0.610,1.195,0.848,0.382,0.672,0.634,�k��,6.5,��
2020/11/26,15:30,0.663,0.958,0.608,1.195,0.848,0.382,0.674,0.634,�k�k��,6.0,��
2020/11/26,15:40,0.666,0.959,0.611,1.195,0.848,0.382,0.674,0.634,�k��,6.5,��
2020/11/26,15:50,0.663,0.961,0.608,1.194,0.847,0.383,0.674,0.635,�k��,5.3,��
2020/11/26,16:00,0.665,0.960,0.607,1.194,0.848,0.382,0.673,0.636,�k��,4.2,��
2020/11/26,16:10,0.669,0.958,0.610,1.197,0.848,0.382,0.673,0.636,�k�k��,4.5,��
2020/11/26,16:20,0.668,0.960,0.609,1.196,0.849,0.383,0.675,0.637,�k�k��,4.3,��
2020/11/26,16:30,0.667,0.961,0.609,1.197,0.848,0.382,0.675,0.635,�k�k��,4.8,��
2020/11/26,16:40,0.668,0.959,0.608,1.195,0.852,0.383,0.674,0.635,�k�k��,4.1,��
2020/11/26,16:50,0.670,0.960,0.609,1.194,0.852,0.381,0.674,0.635,�k�k��,4.1,��
2020/11/26,17:00,0.668,0.961,0.607,1.196,0.849,0.381,0.675,0.634,�k�k��,5.1,��
2020/11/26,17:10,0.668,0.960,0.609,1.197,0.853,0.381,0.673,0.634,�k��,6.2,��
2020/11/26,17:20,0.670,0.961,0.609,1.192,0.850,0.382,0.673,0.634,�k��,5.9,��
2020/11/26,17:30,0.670,0.960,0.610,1.195,0.849,0.381,0.674,0.635,�k��,6.3,��
2020/11/26,17:40,0.668,0.963,0.609,1.196,0.850,0.381,0.674,0.634,�k��,7.0,��
2020/11/26,17:50,0.668,0.961,0.609,1.195,0.851,0.382,0.675,0.635,�k��,3.5,��
2020/11/26,18:00,0.669,0.961,0.608,1.196,0.848,0.381,0.674,0.634,�k��,5.8,��
2020/11/26,18:10,0.669,0.961,0.610,1.196,0.851,0.381,0.674,0.634,�k��,5.1,��
2020/11/26,18:20,0.669,0.960,0.608,1.195,0.852,0.382,0.674,0.634,���k��,5.5,��
2020/11/26,18:30,0.670,0.961,0.609,1.196,0.851,0.382,0.674,0.635,���k��,5.9,��
2020/11/26,18:40,0.670,0.960,0.608,1.196,0.851,0.382,0.674,0.634,�k��,4.9,��
2020/11/26,18:50,0.669,0.962,0.610,1.196,0.851,0.383,0.672,0.635,�k��,4.5,��
2020/11/26,19:00,0.669,0.961,0.608,1.196,0.850,0.381,0.672,0.634,�k��,5.5,��
2020/11/26,19:10,0.670,0.961,0.607,1.196,0.851,0.381,0.674,0.635,�k��,5.3,��
2020/11/26,19:20,0.666,0.962,0.609,1.194,0.850,0.382,0.675,0.636,�k��,6.5,��
2020/11/26,19:30,0.668,0.962,0.608,1.198,0.851,0.380,0.673,0.635,�k��,4.6,��
2020/11/26,19:40,0.670,0.962,0.610,1.196,0.851,0.383,0.675,0.634,�k��,3.9,��
2020/11/26,19:50,0.669,0.962,0.608,1.197,0.850,0.382,0.675,0.635,���k��,3.8,��
2020/11/26,20:00,0.668,0.963,0.607,1.194,0.850,0.381,0.675,0.634,���k��,5.7,��
2020/11/26,20:10,0.670,0.960,0.607,1.196,0.850,0.381,0.675,0.635,���k��,5.3,��
2020/11/26,20:20,0.668,0.960,0.607,1.197,0.850,0.382,0.676,0.634,�k��,5.2,��
2020/11/26,20:30,0.669,0.962,0.609,1.195,0.853,0.382,0.676,0.635,�k��,5.4,��
2020/11/26,20:40,0.668,0.962,0.610,1.195,0.848,0.382,0.675,0.634,�k�k��,4.5,��
2020/11/26,20:50,0.669,0.963,0.608,1.195,0.849,0.382,0.674,0.634,�k�k��,4.5,��
2020/11/26,21:00,0.669,0.963,0.609,1.197,0.851,0.380,0.674,0.635,�k�k��,4.2,��
2020/11/26,21:10,0.669,0.963,0.610,1.196,0.851,0.383,0.675,0.635,�k�k��,4.3,��
2020/11/26,21:20,0.670,0.961,0.609,1.198,0.851,0.382,0.675,0.634,�k�k��,3.8,��
2020/11/26,21:30,0.670,0.960,0.607,1.196,0.851,0.382,0.676,0.635,�k,4.0,��
2020/11/26,21:40,0.668,0.962,0.610,1.196,0.849,0.382,0.675,0.636,�k�k��,4.0,��
2020/11/26,21:50,0.671,0.962,0.609,1.196,0.854,0.382,0.675,0.633,�k�k��,4.0,��
2020/11/26,22:00,0.670,0.961,0.609,1.196,0.851,0.381,0.676,0.634,�k�k��,3.9,��
2020/11/26,22:10,0.668,0.962,0.609,1.197,0.852,0.381,0.674,0.635,�k�k��,4.6,��
2020/11/26,22:20,0.668,0.963,0.609,1.196,0.852,0.382,0.674,0.634,�k�k��,5.3,��
2020/11/26,22:30,0.668,0.963,0.610,1.197,0.852,0.381,0.674,0.635,�k�k��,5.3,��
2020/11/26,22:40,0.670,0.962,0.609,1.198,0.851,0.381,0.673,0.637,�k�k��,4.9,��
2020/11/26,22:50,0.670,0.962,0.609,1.196,0.851,0.382,0.675,0.635,�k�k��,5.4,��
2020/11/26,23:00,0.669,0.963,0.609,1.196,0.851,0.382,0.673,0.635,�k�k��,5.6,��
2020/11/26,23:10,0.669,0.962,0.609,1.195,0.850,0.383,0.675,0.636,�k�k��,5.7,��
2020/11/26,23:20,0.669,0.961,0.608,1.197,0.850,0.381,0.674,0.635,�k,5.5,��
2020/11/26,23:30,0.669,0.963,0.608,1.197,0.851,0.381,0.675,0.634,�k,4.8,��
2020/11/26,23:40,0.667,0.963,0.610,1.196,0.852,0.381,0.674,0.635,�k,5.0,��
2020/11/26,23:50,0.667,0.962,0.609,1.195,0.849,0.381,0.675,0.635,�k,6.5,��
